Weather History for KDYT - January, 2013

Change the Weather History Date:

Wednesday, January 23, 2013

  Actual Average Record
Temperature  
Mean Temperature 2 °F -  
Max Temperature 8 °F 22 °F 47 °F (1981)
Min Temperature -5 °F 3 °F -28 °F (1963)
Degree Days  
Heating Degree Days 64    
Moisture  
Dew Point -10 °F    
Average Humidity 64    
Maximum Humidity 78    
Minimum Humidity 47    
Precipitation  
Precipitation 0.00 in - - ()
Sea Level Pressure  
Sea Level Pressure 30.28 in    
Wind  
Wind Speed 12 mph (West)    
Max Wind Speed 26 mph    
Max Gust Speed 34 mph    
Visibility 10 miles    
Events      
Averages and records for this station are not official NWS values.
T = Trace of Precipitation, MM = Missing Value Source: NWS Daily Summary

Daily Weather History Graph

Daily Weather History Graph

Search for Another Location

Airport or City:

Trip Planner

Search our weather history database for the weather conditions in past years. The results will help you decide how hot, cold, wet, or windy it might be!

Date:

Astronomy

Jan. 23, 2013 Rise Set
Actual Time 7:41 AM CST 4:58 PM CST
Civil Twilight 7:08 AM CST 5:31 PM CST
Nautical Twilight 6:31 AM CST 6:08 PM CST
Astronomical Twilight 5:55 AM CST 6:44 PM CST
Moon 2:06 PM CST (1/23) 4:56 AM CST (1/23)
Length of Visible Light 10h 23m
Length of Day
9h 16m
Waxing Gibbous, 89% of the Moon is Illuminated
Jan 23
Waxing Gibbous
Jan 26
Full
Feb 3
Last Quarter
Feb 10
New
Feb 17
First Quarter

Hourly Weather History & Observations

Time (CST) Temp. Windchill Dew Point Humidity Pressure Visibility Wind Dir Wind Speed Gust Speed Precip Events Conditions
12:14 AM -2.2 °F -18.0 °F -11.2 °F 66% 30.19 in 10.0 mi SSW 9.2 mph - N/A   Overcast
12:33 AM -2.2 °F -18.9 °F -11.2 °F 66% 30.19 in 10.0 mi SW 10.4 mph - N/A   Overcast
12:54 AM -2.2 °F -19.9 °F -11.2 °F 66% 30.18 in 10.0 mi SW 11.5 mph - N/A   Overcast
1:14 AM -2.2 °F -19.9 °F -9.4 °F 71% 30.18 in 10.0 mi SW 11.5 mph - N/A   Overcast
1:33 AM -2.2 °F -19.9 °F -9.4 °F 71% 30.17 in 10.0 mi SW 11.5 mph - N/A   Overcast
1:54 AM -2.2 °F -18.9 °F -9.4 °F 71% 30.18 in 10.0 mi SW 10.4 mph - N/A   Overcast
2:14 AM -2.2 °F -19.9 °F -9.4 °F 71% 30.18 in 10.0 mi SW 11.5 mph - N/A   Overcast
2:33 AM -2.2 °F -18.9 °F -9.4 °F 71% 30.18 in 10.0 mi SW 10.4 mph - N/A   Overcast
2:54 AM -2.2 °F -16.8 °F -9.4 °F 71% 30.19 in 10.0 mi SW 8.1 mph - N/A   Overcast
3:14 AM -2.2 °F -16.8 °F -9.4 °F 71% 30.18 in 10.0 mi SW 8.1 mph - N/A   Overcast
3:33 AM -2.2 °F -18.0 °F -9.4 °F 71% 30.18 in 10.0 mi SW 9.2 mph - N/A   Overcast
3:54 AM -0.4 °F -15.7 °F -9.4 °F 66% 30.17 in 10.0 mi SW 9.2 mph - N/A   Overcast
4:14 AM -0.4 °F -14.7 °F -9.4 °F 66% 30.16 in 10.0 mi SSW 8.1 mph - N/A   Overcast
4:33 AM -0.4 °F -15.7 °F -7.6 °F 72% 30.15 in 10.0 mi SW 9.2 mph - N/A   Overcast
4:54 AM -0.4 °F -14.7 °F -7.6 °F 72% 30.15 in 10.0 mi SW 8.1 mph - N/A   Overcast
5:14 AM -0.4 °F -15.7 °F -7.6 °F 72% 30.14 in 10.0 mi SW 9.2 mph - N/A   Overcast
5:33 AM -0.4 °F -15.7 °F -7.6 °F 72% 30.14 in 10.0 mi SW 9.2 mph - N/A   Overcast
5:54 AM -0.4 °F -14.7 °F -7.6 °F 72% 30.13 in 10.0 mi SW 8.1 mph - N/A   Overcast
6:13 AM -0.4 °F -16.7 °F -5.8 °F 78% 30.13 in 10.0 mi SW 10.4 mph - N/A   Overcast
6:34 AM -0.4 °F -15.7 °F -5.8 °F 78% 30.12 in 10.0 mi SW 9.2 mph - N/A   Overcast
6:54 AM -0.4 °F -14.7 °F -5.8 °F 78% 30.12 in 10.0 mi SW 8.1 mph - N/A   Overcast
7:13 AM 1.4 °F -12.5 °F -5.8 °F 72% 30.12 in 10.0 mi SW 8.1 mph - N/A   Overcast
7:34 AM 1.4 °F -13.5 °F -5.8 °F 72% 30.11 in 10.0 mi SW 9.2 mph - N/A   Overcast
7:54 AM 1.4 °F -12.5 °F -5.8 °F 72% 30.11 in 10.0 mi SW 8.1 mph - N/A   Overcast
8:13 AM 1.4 °F -12.5 °F -5.8 °F 72% 30.11 in 10.0 mi SSW 8.1 mph - N/A   Overcast
8:34 AM 1.4 °F -13.5 °F -4.0 °F 78% 30.11 in 10.0 mi SSW 9.2 mph - N/A   Overcast
8:54 AM 1.4 °F -14.5 °F -4.0 °F 78% 30.11 in 10.0 mi SW 10.4 mph - N/A   Overcast
9:13 AM 3.2 °F -12.2 °F -2.2 °F 78% 30.11 in 10.0 mi SSW 10.4 mph - N/A   Overcast
9:34 AM 3.2 °F -12.2 °F -2.2 °F 78% 30.11 in 10.0 mi SSW 10.4 mph - N/A   Overcast
9:54 AM 3.2 °F -11.3 °F -2.2 °F 78% 30.11 in 10.0 mi SW 9.2 mph - N/A   Scattered Clouds
10:13 AM 5.0 °F -10.0 °F -2.2 °F 72% 30.11 in 10.0 mi SW 10.4 mph - N/A   Scattered Clouds
10:34 AM 6.8 °F -8.6 °F -0.4 °F 72% 30.12 in 10.0 mi WNW 11.5 mph - N/A   Mostly Cloudy
10:53 AM 8.6 °F -8.9 °F -0.4 °F 67% 30.13 in 10.0 mi WNW 16.1 mph 23.0 mph N/A   Mostly Cloudy
11:13 AM 8.6 °F -9.5 °F -0.4 °F 67% 30.13 in 10.0 mi WNW 17.3 mph - N/A   Mostly Cloudy
11:34 AM 8.6 °F -11.4 °F -2.2 °F 62% 30.13 in 10.0 mi WNW 21.9 mph 25.3 mph N/A   Mostly Cloudy
11:53 AM 8.6 °F -9.5 °F -2.2 °F 62% 30.13 in 10.0 mi WNW 17.3 mph - N/A   Mostly Cloudy
12:14 PM 8.6 °F -8.9 °F -2.2 °F 62% 30.14 in 10.0 mi NW 16.1 mph 21.9 mph N/A   Overcast
12:33 PM 6.8 °F -12.4 °F -4.0 °F 61% 30.16 in 7.0 mi WNW 18.4 mph - N/A   Mostly Cloudy
12:53 PM 6.8 °F -12.9 °F -7.6 °F 52% 30.17 in 10.0 mi NW 19.6 mph 27.6 mph N/A   Scattered Clouds
1:14 PM 6.8 °F -14.3 °F -9.4 °F 48% 30.18 in 10.0 mi NW 23.0 mph 29.9 mph N/A   Clear
1:34 PM 5.0 °F -17.9 °F -9.4 °F 52% 30.19 in 7.0 mi WNW 26.5 mph 34.5 mph N/A   Clear
1:53 PM 5.0 °F -15.7 °F -7.6 °F 56% 30.22 in 7.0 mi NNW 20.7 mph 32.2 mph N/A   Mostly Cloudy
2:13 PM 1.4 °F -21.9 °F -13.0 °F 51% 30.25 in 10.0 mi NW 24.2 mph 32.2 mph N/A   Mostly Cloudy
2:33 PM 3.2 °F -20.3 °F -11.2 °F 51% 30.27 in 10.0 mi NW 26.5 mph 32.2 mph N/A   Clear
2:54 PM 1.4 °F -22.3 °F -13.0 °F 51% 30.29 in 10.0 mi WNW 25.3 mph 28.8 mph N/A   Scattered Clouds
3:13 PM 1.4 °F -21.4 °F -14.8 °F 47% 30.31 in 10.0 mi NW 23.0 mph 28.8 mph N/A   Scattered Clouds
3:34 PM 1.4 °F -18.8 °F -14.8 °F 47% 30.33 in 10.0 mi NW 17.3 mph 26.5 mph N/A   Scattered Clouds
3:53 PM -0.4 °F -21.2 °F -14.8 °F 51% 30.36 in 10.0 mi NW 17.3 mph 23.0 mph N/A   Scattered Clouds
4:14 PM -0.4 °F -22.8 °F -14.8 °F 51% 30.37 in 10.0 mi NW 20.7 mph 26.5 mph N/A   Mostly Cloudy
4:33 PM -0.4 °F -21.2 °F -14.8 °F 51% 30.39 in 10.0 mi NW 17.3 mph 26.5 mph N/A   Mostly Cloudy
4:53 PM -0.4 °F -21.2 °F -14.8 °F 51% 30.41 in 10.0 mi NW 17.3 mph 24.2 mph N/A   Mostly Cloudy
5:13 PM -0.4 °F -21.7 °F -13.0 °F 55% 30.42 in 10.0 mi NW 18.4 mph 24.2 mph N/A   Mostly Cloudy
5:33 PM -0.4 °F -22.3 °F -14.8 °F 51% 30.44 in 10.0 mi NW 19.6 mph 23.0 mph N/A   Scattered Clouds
5:54 PM -2.2 °F -22.2 °F -16.6 °F 50% 30.46 in 10.0 mi NW 15.0 mph 23.0 mph N/A   Scattered Clouds
6:13 PM -2.2 °F -22.2 °F -16.6 °F 50% 30.48 in 10.0 mi NW 15.0 mph - N/A   Scattered Clouds
6:33 PM -2.2 °F -20.7 °F -16.6 °F 50% 30.50 in 10.0 mi NW 12.7 mph 20.7 mph N/A   Clear
6:54 PM -2.2 °F -20.7 °F -16.6 °F 50% 30.51 in 10.0 mi NW 12.7 mph 18.4 mph N/A   Clear
7:13 PM -2.2 °F -22.9 °F -16.6 °F 50% 30.52 in 10.0 mi NW 16.1 mph 23.0 mph N/A   Clear
7:33 PM -2.2 °F -22.2 °F -16.6 °F 50% 30.52 in 10.0 mi NW 15.0 mph 19.6 mph N/A   Clear
7:53 PM -2.2 °F -22.9 °F -14.8 °F 55% 30.52 in 10.0 mi NW 16.1 mph 23.0 mph N/A   Clear
8:13 PM -4.0 °F -23.0 °F -16.6 °F 55% 30.54 in 10.0 mi NW 12.7 mph 20.7 mph N/A   Clear
8:34 PM -2.2 °F -24.1 °F -14.8 °F 55% 30.55 in 10.0 mi NNW 18.4 mph 25.3 mph N/A   Clear
9:13 PM -4.0 °F -24.5 °F -13.0 °F 65% 30.56 in 10.0 mi NNW 15.0 mph 20.7 mph N/A   Clear
9:34 PM -4.0 °F -26.4 °F -11.2 °F 71% 30.55 in 10.0 mi North 18.4 mph 25.3 mph N/A   Clear
9:53 PM -4.0 °F -25.2 °F -11.2 °F 71% 30.57 in 10.0 mi NNW 16.1 mph 24.2 mph N/A   Clear
10:13 PM -5.8 °F -24.4 °F -13.0 °F 71% 30.60 in 10.0 mi NNW 11.5 mph 17.3 mph N/A   Scattered Clouds
10:34 PM -5.8 °F -24.4 °F -14.8 °F 65% 30.61 in 10.0 mi North 11.5 mph 20.7 mph N/A   Scattered Clouds
10:53 PM -5.8 °F -27.5 °F -13.0 °F 71% 30.61 in 10.0 mi North 16.1 mph 20.7 mph N/A   Scattered Clouds
11:13 PM -5.8 °F -25.2 °F -13.0 °F 71% 30.62 in 10.0 mi NNW 12.7 mph - N/A   Clear
11:53 PM -5.8 °F -26.0 °F -14.8 °F 65% 30.64 in 10.0 mi NNW 13.8 mph 19.6 mph N/A   Scattered Clouds